This demonstration page uses our WeatherBlox Daily Observations layout. Learn more.

Left ArrowRight Arrow

39.29038, -76.61219

Hourly Observations for April 10, 2022

Temp ( °F °C ) Dew Point ( °F °C ) Humidity (%) Winds ( mph kmh ) Pressure ( in mb ) Visibility ( mi km ) Precip ( " mm )
12:54 am 00:54 Mostly Cloudy 46 7.8 33 0.6 61 61 WNW 12 19 29.78 1009 10 16 0.00 0.00
1:54 am 01:54 Mostly Clear 44 6.7 32 0 63 63 WNW 12 19 29.79 1009 10 16 0.00 0.00
2:54 am 02:54 Mostly Clear 42 5.6 33 0.6 71 71 WNW 12 19 29.79 1009 10 16 0.00 0.00
3:54 am 03:54 Partly Cloudy 42 5.6 33 0.6 71 71 WNW 9 15 29.81 1010 10 16 0.00 0.00
4:54 am 04:54 Mostly Clear 40 4.4 32 0 73 73 WNW 7 11 29.83 1010 10 16 0.00 0.00
5:54 am 05:54 Mostly Clear 39 3.9 31 -0.6 73 73 W 7 11 29.85 1011 10 16 0.00 0.00
6:54 am 06:54 Mostly Cloudy 40 4.4 32 0 73 73 W 5 7 29.88 1012 10 16 0.00 0.00
7:54 am 07:54 Mostly Cloudy 43 6.1 32 0 65 65 W 8 13 29.90 1012 10 16 0.00 0.00
8:54 am 08:54 Mostly Cloudy 44 6.7 32 0 63 63 W 16 26 29.91 1013 10 16 0.00 0.00
9:54 am 09:54 Mostly Cloudy 47 8.3 30 -1.1 52 52 WNW 13 20 29.92 1013 10 16 0.00 0.00
10:54 am 10:54 Cloudy 47 8.3 29 -1.7 50 50 WNW 20 31 29.93 1014 10 16 0.00 0.00
11:54 am 11:54 Cloudy 48 8.9 28 -2.2 46 46 WNW 18 30 29.93 1014 10 16 0.00 0.00
12:54 pm 12:54 Mostly Cloudy 48 8.9 27 -2.8 44 44 WNW 18 30 29.92 1013 10 16 0.00 0.00
1:54 pm 13:54 Cloudy 49 9.4 27 -2.8 43 43 W 18 30 29.92 1013 10 16 0.00 0.00
2:54 pm 14:54 Cloudy 50 10 27 -2.8 41 41 WNW 17 28 29.92 1013 10 16 0.00 0.00
3:54 pm 15:54 Mostly Cloudy 52 11.1 28 -2.2 40 40 NW 22 35 29.93 1014 10 16 0.00 0.00
4:54 pm 16:54 Mostly Cloudy 52 11.1 27 -2.8 38 38 WNW 15 24 29.94 1014 10 16 0.00 0.00
5:54 pm 17:54 Partly Cloudy 53 11.7 27 -2.8 37 37 WNW 18 30 29.96 1014 10 16 0.00 0.00
6:54 pm 18:54 Mostly Sunny 51 10.6 27 -2.8 39 39 NW 9 15 29.96 1015 10 16 0.00 0.00
7:54 pm 19:54 Mostly Clear 48 8.9 27 -2.8 44 44 WNW 6 9 29.96 1015 10 16 0.00 0.00
8:54 pm 20:54 Clear 48 8.9 27 -2.8 44 44 W 5 7 29.99 1016 10 16 0.00 0.00
9:54 pm 21:54 Clear 42 5.6 29 -1.7 60 60 Calm 30.02 1017 10 16 0.00 0.00
10:54 pm 22:54 Clear 38 3.3 29 -1.7 70 70 W 3 6 30.03 1017 10 16 0.00 0.00
11:54 pm 23:54 Clear 38 3.3 30 -1.1 73 73 Calm 30.05 1018 10 16 0.00 0.00

Powered by AerisWeather